User: anonymous   Login
Location: Oakhurst
(33.6448°N, 111.9543°W)
Time: 06:29:31
(UTC+00:00)
Language:

UNISAT 6 - Orbit

View from above orbital plane
View from above orbital plane
View from above satellite
View from above satellite

Ground track
Ground track

The orbit data is extracted from the following two-line orbital elements,

1 40012U 14033C   21209.35758327  .00000292  00000-0  50117-4 0  9993
2 40012  97.6739  49.6232 0059238 127.0994 233.5650 14.74344520382220
Epoch (UTC): 28 July 2021 08:34:55
Eccentricity: 0.0059238
inclination: 97.6739°
perigee height: 605 km
apogee height: 689 km
right ascension of ascending node: 49.6232°
argument of perigee: 127.0994°
revolutions per day: 14.74344520
mean anomaly at epoch: 233.5650°
orbit number at epoch: 38222

The dashed part of the orbit path shows where the satellite is in the earth's shadow,  

DLR